Regional Weather Roundup
Issued by NWS

Home | Current Version | Previous Version | Graphics & Text | Print | Product List | Glossary On
Versions: 1 2 3 4 5 6 7 8 9 10 11 12 13 14 15 16 17 18 19 20 21 22 23 24 25 26 27 28 29 30 31 32 33 34 35 36 37 38 39 40 41 42 43 44 45 46 47 48 49 50
415
ASUS43 KDMX 021903
RWRIA

WEATHER ROUNDUP FOR IOWA
NATIONAL WEATHER SERVICE DES MOINES IA
200 PM CDT MON MAY 02 2016

NOTE: "FAIR" INDICATES FEW OR NO CLOUDS BELOW 12,000 FEET WITH NO
SIGNIFICANT WEATHER AND/OR OBSTRUCTIONS TO VISIBILITY.

* - THESE STATIONS ARE NOT NWS STATIONS...THUS NOT UNDER NWS
QUALITY CONTROL.  THEY ALSO DO NOT REPORT WEATHER SUCH
AS PRECIPITATION OR FOG.

IAZ001>003-012>014-020>022-031>034-043>046-022000-
   NORTHWEST IOWA

CITY           SKY/WX    TMP DP  RH WIND       PRES   REMARKS
CARROLL *      CLOUDY    59  41  51 NW8       30.08F
CHEROKEE *     PTSUNNY   60  37  43 NW6       30.08F
DENISON *      CLOUDY    59  39  47 N7        30.07F
LE MARS *      CLOUDY    61  36  39 N7        30.09F
ORANGE CITY *  SUNNY     61  37  41 CALM      30.08F
SHELDON *      MOSUNNY   61  36  39 CALM      30.06F
SIOUX CITY     SUNNY     65  35  33 CALM      30.09F
SPENCER        PTSUNNY   61  33  35 CALM      30.08F
STORM LAKE *     N/A     57  34  41 NW5       30.09F
$$

IAZ055>058-069>071-079>083-090>094-022000-
   SOUTHWEST IOWA

CITY           SKY/WX    TMP DP  RH WIND       PRES   REMARKS
ATLANTIC *     PTSUNNY   61  39  44 NE7       30.09F
AUDUBON *      PTSUNNY   59  41  51 NW7       30.10S
CLARINDA *       N/A    N/A N/A N/A MISG        N/A
COUNCIL BLFS * MOSUNNY   59  39  47 CALM      30.10F
CRESTON *      PTSUNNY   61  43  51 VRB6G16   30.10S
HARLAN  *      CLOUDY    59  39  47 NE5       30.13S
LAMONI         CLOUDY    60  44  55 N8        30.08F
SHENANDOAH *   MOSUNNY   63  41  45 CALM      30.10F
$$

IAZ047>049-059>061-072>074-084-022000-
   CENTRAL IOWA

CITY           SKY/WX    TMP DP  RH WIND       PRES   REMARKS
AMES           MOSUNNY   61  39  44 VRB3      30.08F
ANKENY *       PTSUNNY   61  43  51 N9        30.08S
BOONE *        SUNNY     61  45  55 VRB5      30.08F
CHARITON *     PTSUNNY   59  43  55 NE13      30.07F
DES MOINES     MOSUNNY   65  38  36 N9        30.07F
GRINNELL*      PTSUNNY   61  45  55 N10       30.08F
KNOXVILLE *    PTSUNNY   59  41  51 N9        30.06F
MARSHALLTOWN   PTSUNNY   59  43  55 VRB7      30.07F
NEWTON *       PTSUNNY   59  43  55 N9G16     30.07F
$$

IAZ004>006-015-016-023>025-035-036-022000-
   NORTH CENTRAL IOWA

CITY           SKY/WX    TMP DP  RH WIND       PRES   REMARKS
ALGONA *       SUNNY     63  37  39 W8        30.08F
CLARION *      CLOUDY    59  39  47 NW5       30.08F
ESTHERVILLE    MOSUNNY   60  36  40 CALM      30.07F
FORT DODGE *   CLOUDY    57  41  54 SE3       30.09F
MASON CITY     PTSUNNY   60  40  47 VRB3      30.09F
FOREST CITY *  CLOUDY    59  34  38 CALM      30.08F
WEBSTER CITY * MOSUNNY   61  43  51 CALM      30.06F
IOWA FALLS *   CLOUDY    59  36  41 N3        30.09F
$$

IAZ007>011-017>019-026>030-037>042-050>054-066-022000-
   NORTHEAST IOWA

CITY           SKY/WX    TMP DP  RH WIND       PRES   REMARKS
CEDAR RAPIDS   CLOUDY    57  45  64 E8        30.07F
CHARLES CITY * PTSUNNY   61  39  44 VRB3      30.08F
CLINTON *      MOSUNNY   58  41  53 E12       30.07F
DECORAH *      PTSUNNY   59  37  44 VRB6      30.07S
DUBUQUE        PTSUNNY   58  40  51 NE10      30.07F
MONTICELLO *   CLOUDY    57  41  54 NE7       30.07S
OELWEIN *      MOSUNNY   59  36  41 NE9       30.08F
WATERLOO       MOSUNNY   62  41  46 NE7G17    30.07F
$$

IAZ064-065-067-068-078-022000-
   EAST CENTRAL IOWA

CITY           SKY/WX    TMP DP  RH WIND       PRES   REMARKS
DAVENPORT      PTSUNNY   59  41  51 NE9       30.07F
IOWA CITY      CLOUDY    57  43  59 N8        30.09F
MT. PLEASANT * CLOUDY    55  46  71 NE7       30.08F
MUSCATINE *    CLOUDY    59  43  55 NE9       30.07F
QUAD CITIES    CLOUDY    61  41  47 E8        30.06S
$$

IAZ062-063-075>077-085>089-095>099-022000-
   SOUTHEAST IOWA

CITY           SKY/WX    TMP DP  RH WIND       PRES   REMARKS
BURLINGTON     CLOUDY    54  45  71 NE7       30.07S
FAIRFIELD *    PTSUNNY   57  46  67 NE12      30.08S
FORT MADISON * CLOUDY    54  46  76 NE6       30.08S
KEOKUK *       CLOUDY    54  46  76 NE6       30.07S
OSKALOOSA *    PTSUNNY   57  45  62 NE8       30.08F
OTTUMWA        CLOUDY    55  45  68 E12       30.07F
WASHINGTON *   PTSUNNY   57  48  72 NE8       30.09F
$$

ABBREVIATIONS USED IN REMARKS
   TC - TEMPERATURES IN CELSIUS
  WCI - WIND CHILL INDEX
   HX - HEAT INDEX
  VSB - VISIBILITY
$$





USA.gov is the U.S. government's official web portal to all federal, state and local government web resources and services.